Wetbulb
76.88 75.35 73.82 71.66 61.95 59.76 55.39 56.37 60.78 58.87 59.07 62.07 65.79 64.87 63.10 64.61 61.72 55.94 70.27 71.58 72.89 73.99 75.66 76.31 77.54 77.29 76.55 76.55 76.58 76.36 76.58 76.98 76.75 76.53 75.76 75.81 76.04 75.68 76.00 75.80 76.24 76.83 76.72 76.73 76.92 76.68 76.73 75.88 75.99
74.01 73.02 72.70 69.82 58.17 52.99 54.84 59.74 58.53 59.80 62.46 63.86 65.86 65.84 63.93 62.20 67.06 67.17 68.60 71.82 72.96 73.47 73.67 74.93 77.58 77.70 76.61 76.47 76.88 76.72 76.76 76.26 76.64 76.78 76.97 75.91 75.55 76.04 75.64 75.24 75.79 76.57 76.55 76.56 76.70 76.92 76.49 75.99 75.21
72.87 74.64 68.91 63.61 58.68 53.25 54.78 59.86 60.38 62.42 63.73 63.02 63.41 67.28 65.72 63.56 67.53 67.82 71.22 72.09 72.13 72.13 73.17 74.66 78.09 78.03 76.83 76.40 76.86 76.64 76.24 75.99 76.13 76.47 76.41 76.63 75.66 76.07 75.05 74.52 74.91 75.74 76.63 76.63 76.72 76.81 76.45 76.23 75.38
74.14 71.38 69.31 60.37 57.02 59.15 59.16 61.01 61.81 61.45 62.44 64.18 65.03 63.05 67.57 70.35 68.90 70.05 71.45 72.07 72.10 72.56 74.12 76.82 77.79 77.18 76.89 76.62 76.73 76.21 75.91 75.77 75.55 75.88 75.35 75.69 75.93 76.10 75.44 74.82 75.13 75.30 76.67 76.76 76.73 76.72 76.37 75.24 74.85
72.00 70.43 61.87 57.03 58.43 60.21 61.98 62.92 62.57 60.57 60.81 63.94 65.56 62.55 64.78 69.78 70.82 71.32 72.27 73.02 72.02 72.59 74.43 75.56 78.03 77.79 77.48 76.62 76.13 75.69 76.78 76.34 75.44 75.30 74.93 74.92 75.15 75.74 75.90 75.93 75.49 76.68 76.59 76.60 76.49 75.96 75.44 75.05 75.21
67.74 67.91 57.58 54.13 57.84 61.85 62.77 63.70 62.28 61.56 63.56 65.01 64.15 64.18 64.86 69.89 69.55 70.16 72.25 72.14 72.87 73.63 74.62 75.24 77.40 77.68 77.64 76.51 76.82 76.31 75.38 74.99 74.85 74.82 75.05 75.07 74.96 75.13 76.02 75.91 76.35 76.60 76.60 76.63 76.13 75.77 75.10 74.91 74.61
67.97 63.86 56.93 57.43 58.59 59.77 62.53 64.34 61.40 61.79 63.35 64.13 66.21 61.67 66.12 68.15 70.38 70.94 70.52 72.24 72.32 73.17 73.26 73.88 74.21 75.21 76.73 76.73 76.24 75.66 74.91 74.57 74.71 74.74 74.88 75.02 74.46 75.21 75.52 76.30 76.44 76.21 76.38 76.46 76.16 75.63 75.35 74.77 74.58
69.75 63.19 57.48 58.64 58.02 59.13 63.73 64.98 65.59 63.72 63.17 67.62 67.31 61.19 62.79 68.61 71.49 71.19 71.51 71.22 71.43 71.88 72.34 72.42 72.86 73.54 73.02 73.13 75.85 75.46 75.13 74.71 74.41 74.21 74.02 74.42 72.70 74.16 75.46 76.55 77.10 76.34 76.40 76.02 75.57 74.99 74.58 73.86 74.58
68.39 58.07 55.13 56.92 58.56 60.60 65.33 64.06 66.72 67.52 64.94 65.53 65.37 65.69 67.49 70.30 70.75 69.37 68.21 68.89 70.14 70.69 70.54 71.20 71.87 71.93 71.86 71.94 73.37 75.74 75.41 75.30 75.19 74.74 75.26 72.79 70.50 71.28 74.13 75.33 76.40 76.18 76.35 76.32 75.96 75.60 75.08 74.77 74.91
63.43 57.72 57.75 61.67 62.56 62.31 65.02 64.10 63.84 64.22 64.47 64.30 65.06 67.67 68.72 68.70 67.02 65.97 65.86 65.36 67.35 68.13 69.12 70.63 71.07 70.67 70.62 71.62 71.48 71.80 72.20 72.14 72.30 73.14 73.15 71.11 71.30 72.65 75.46 75.44 76.47 76.85 76.27 76.63 76.24 76.24 75.82 75.08 72.10
62.70 57.67 61.39 62.38 64.81 65.06 64.45 63.18 64.43 62.30 60.68 64.10 63.68 65.26 66.56 65.64 65.35 65.54 65.36 65.89 65.79 67.90 69.20 70.04 70.34 70.57 70.10 70.94 72.15 72.52 72.35 71.98 72.71 72.91 73.62 74.08 74.41 73.68 73.76 73.19 73.48 73.59 76.42 73.12 74.66 74.04 73.64 72.98 72.20
59.92 62.31 62.58 62.80 65.72 65.11 63.66 64.43 62.85 64.04 63.69 66.91 66.75 66.87 66.07 64.53 64.32 64.46 64.69 65.37 66.20 66.45 67.25 67.37 67.88 68.99 69.60 72.25 72.46 73.00 72.75 73.14 73.30 73.88 73.33 73.21 73.42 73.21 73.37 73.18 73.12 72.95 73.30 72.82 72.42 71.98 72.31 71.81 72.82
60.75 61.34 62.85 63.09 62.78 63.30 65.26 63.57 63.18 64.44 66.07 67.44 67.40 67.41 66.13 65.31 65.10 65.28 65.87 65.73 67.16 66.27 67.56 68.04 69.79 71.80 71.69 71.92 72.89 71.31 72.23 72.79 74.08 74.12 73.87 74.82 73.54 73.17 73.07 73.16 73.76 73.29 73.60 73.48 71.97 71.94 72.16 70.80 71.14
63.37 62.31 62.41 62.61 62.86 62.37 62.21 62.08 62.38 63.15 65.97 65.59 65.94 65.50 66.19 66.09 66.12 65.48 65.79 65.20 66.72 66.64 66.88 67.52 70.85 71.94 72.45 71.46 73.62 73.08 72.98 73.46 74.06 74.75 73.93 74.34 73.90 73.73 73.72 73.53 73.35 72.65 73.55 72.95 72.81 72.10 71.71 71.08 72.34
63.97 60.22 62.03 62.38 62.43 62.73 63.24 59.79 60.55 62.24 65.42 64.09 64.27 64.78 65.30 65.55 66.35 65.62 66.31 65.73 67.01 66.42 67.93 67.04 71.24 72.16 71.86 71.14 73.21 73.61 73.64 73.54 73.06 74.89 75.34 74.41 74.38 73.69 73.94 73.72 73.04 73.59 73.42 74.11 74.13 72.84 73.24 71.38 71.92
61.61 60.20 57.10 61.44 62.18 64.41 61.32 54.82 62.22 62.26 62.27 63.11 63.76 64.19 64.71 64.88 65.22 66.62 66.65 67.46 68.04 67.48 67.25 69.82 73.24 71.74 71.84 72.16 72.76 73.74 73.21 73.71 74.30 75.45 75.75 75.66 75.43 75.03 74.19 73.34 72.79 73.80 73.45 72.95 72.04 71.85 71.47 72.43 71.18
58.58 53.09 56.55 58.54 63.79 63.54 62.14 59.02 64.46 62.23 60.13 61.91 62.86 63.38 64.42 64.71 65.02 66.94 67.46 68.24 69.07 68.10 69.27 69.08 68.92 71.41 72.30 73.23 74.43 73.39 74.39 73.44 74.51 74.40 75.16 75.47 74.84 75.89 74.12 73.65 73.85 73.18 72.67 72.09 72.09 72.15 71.02 70.23 70.51
53.95 54.05 56.34 55.58 60.07 62.27 58.51 57.62 62.95 62.39 60.89 60.18 61.43 62.49 63.62 64.27 64.67 66.91 68.28 68.66 68.90 68.86 69.00 69.70 69.86 71.50 72.76 72.98 73.91 74.22 72.96 74.75 75.00 74.51 75.93 75.68 75.15 75.30 74.51 74.31 74.26 73.69 72.95 71.84 71.87 71.39 71.42 70.18 70.85
58.85 56.34 56.23 58.84 60.97 58.40 58.15 58.09 61.40 63.18 61.97 60.14 59.85 61.48 62.67 63.59 65.41 67.08 67.58 69.01 68.66 68.86 68.96 69.70 70.24 72.42 73.28 72.80 72.91 71.73 71.54 73.84 73.52 75.58 76.52 75.36 75.33 76.17 74.89 74.16 74.19 73.45 72.35 72.41 72.29 71.83 70.63 68.87 71.05
57.07 56.21 54.96 57.42 59.09 58.35 58.29 56.87 57.46 59.44 60.42 62.39 61.12 61.78 63.01 63.80 64.37 65.69 66.22 67.28 68.54 68.34 68.34 69.18 71.47 73.66 73.73 72.63 72.22 72.18 72.00 73.69 71.18 70.26 73.22 75.39 75.64 74.92 75.41 74.13 73.19 73.28 71.39 70.56 70.98 71.55 69.92 70.41 71.64
56.78 55.19 56.00 54.41 56.68 59.49 57.79 53.08 54.57 59.20 61.15 63.31 64.32 63.71 64.05 64.29 63.56 65.59 66.09 66.85 69.37 68.99 69.35 70.27 73.16 73.67 73.14 72.46 72.81 73.73 73.84 72.30 70.64 69.46 70.76 72.64 76.04 75.84 74.89 74.76 73.69 72.23 72.34 71.61 71.86 71.27 70.54 68.64 71.17
52.87 59.73 59.68 58.63 54.34 50.46 58.74 50.14 54.61 56.87 59.49 61.84 64.69 64.21 63.83 64.45 64.85 67.32 67.33 67.28 70.27 71.26 72.42 72.21 74.26 73.45 72.60 73.49 73.03 71.58 70.55 69.07 70.29 71.14 69.94 69.36 75.37 74.95 75.56 75.16 73.89 72.76 68.06 64.60 66.60 71.71 72.72 70.57 68.39
52.92 60.49 59.42 57.41 54.32 54.64 54.06 48.67 55.55 57.70 56.85 59.92 62.49 65.27 64.89 64.95 65.18 67.29 67.90 68.56 69.52 72.30 72.43 72.65 74.19 73.83 72.82 73.53 74.80 72.37 70.75 72.16 70.59 67.21 67.05 67.22 68.56 73.90 76.26 75.16 74.48 72.27 71.27 70.23 67.23 69.00 70.78 71.72 70.38
55.82 52.86 53.12 54.14 50.80 44.84 50.03 50.74 49.12 52.72 56.36 58.11 62.88 63.42 65.63 65.08 65.34 66.64 68.75 69.34 69.47 71.60 72.05 72.84 73.34 73.52 73.43 73.45 74.43 72.89 69.90 71.83 70.02 66.29 66.36 67.77 69.89 71.78 71.72 74.27 74.41 74.18 72.08 71.52 70.25 69.37 71.41 71.85 71.93
51.34 46.20 42.15 42.66 42.60 43.52 52.82 51.86 51.96 57.06 59.67 59.85 59.30 62.74 64.45 65.77 65.11 65.53 67.55 68.20 68.95 69.99 71.44 72.95 72.53 73.67 74.55 74.18 74.74 74.12 72.18 72.97 70.57 69.36 69.95 69.00 69.59 70.12 68.71 68.24 68.21 74.04 73.59 72.75 72.93 72.93 72.60 72.96 71.74
48.34 46.75 42.18 38.72 40.49 45.07 51.17 49.03 54.22 59.47 61.01 61.24 61.62 62.95 64.97 65.71 65.45 65.39 66.95 68.31 68.63 70.11 70.84 72.68 72.35 72.76 74.13 74.54 74.64 75.39 74.11 74.07 72.75 70.14 67.07 69.41 68.08 67.70 70.74 69.56 69.21 69.38 74.36 74.96 74.21 74.02 73.28 73.86 73.31
47.75 44.66 48.43 43.75 45.11 43.75 49.71 51.82 58.53 59.98 60.85 62.14 62.25 63.07 63.61 66.05 65.53 65.68 66.76 68.39 68.62 69.87 70.57 72.34 72.63 72.98 73.20 75.13 75.06 74.99 74.99 74.13 72.16 69.45 69.16 68.64 66.18 67.21 68.22 68.58 68.80 69.33 70.70 75.06 74.72 73.65 73.39 73.78 73.23
48.53 49.76 41.96 43.51 38.29 37.91 45.93 49.04 50.65 55.22 58.09 59.90 60.35 61.98 62.75 66.12 65.91 66.06 66.88 68.11 68.83 69.83 70.28 72.83 73.27 73.67 73.61 74.84 75.73 75.75 75.82 75.28 71.66 69.03 67.54 67.72 66.63 65.78 67.75 68.23 68.61 67.97 69.76 74.79 74.82 73.89 74.37 73.15 73.17
45.09 43.84 44.79 42.90 41.99 38.11 39.86 45.45 56.44 56.50 58.41 59.14 60.50 62.12 64.61 66.30 66.32 66.02 66.86 67.69 68.77 69.52 72.30 72.74 73.31 73.70 73.96 74.27 75.06 74.91 75.96 75.74 72.16 68.14 67.45 67.09 66.73 66.35 65.01 65.69 67.83 66.92 72.15 74.76 74.40 74.14 73.84 72.68 72.91
47.89 45.32 44.29 39.57 39.54 41.76 42.10 45.59 57.53 59.23 58.70 59.27 60.03 62.02 64.86 66.95 66.93 66.35 66.95 66.78 68.17 68.64 72.26 73.00 73.50 73.86 74.32 74.14 74.63 74.48 75.26 75.72 74.50 68.11 67.69 67.69 66.94 66.09 66.31 66.08 66.28 67.04 73.17 74.96 74.89 73.77 74.91 73.30 72.50
MSLP
1008.31 1008.61 1008.90 1009.14 1009.73 1009.09 1008.92 1009.14 1008.70 1008.75 1008.96 1009.32 1009.54 1010.20 1011.53 1012.09 1012.17 1013.36 1013.28 1014.05 1014.77 1015.50 1015.77 1016.01 1016.23 1016.44 1016.69 1016.83 1016.91 1016.92 1017.08 1017.30 1017.32 1017.36 1017.40 1017.42 1017.44 1017.55 1017.64 1017.63 1017.78 1017.95 1018.08 1018.06 1018.10 1018.17 1018.27 1018.49 1018.65
1007.95 1008.54 1009.00 1008.65 1008.86 1008.75 1008.94 1008.48 1008.48 1008.55 1008.74 1009.16 1009.78 1010.48 1011.30 1012.69 1012.17 1012.74 1013.53 1013.91 1014.41 1015.20 1015.71 1016.08 1016.34 1016.51 1016.80 1017.01 1017.09 1017.17 1017.26 1017.43 1017.59 1017.64 1017.43 1017.46 1017.58 1017.69 1017.87 1017.89 1018.05 1018.21 1018.32 1018.42 1018.41 1018.47 1018.45 1018.58 1018.93
1008.08 1008.40 1008.78 1007.76 1007.57 1007.80 1008.16 1008.22 1008.19 1008.52 1008.71 1008.93 1009.51 1010.15 1011.15 1012.28 1012.35 1012.45 1013.08 1013.68 1014.16 1015.00 1015.60 1016.05 1016.36 1016.62 1016.90 1017.17 1017.28 1017.38 1017.44 1017.64 1017.87 1017.85 1017.70 1017.75 1017.74 1017.85 1017.94 1018.00 1018.14 1018.43 1018.45 1018.66 1018.69 1018.76 1018.80 1018.78 1019.01
1008.38 1008.78 1008.31 1007.16 1006.76 1006.84 1007.32 1007.83 1008.17 1008.57 1008.73 1009.14 1009.76 1010.73 1011.62 1011.76 1011.86 1011.97 1012.96 1013.57 1014.26 1015.00 1015.58 1016.03 1016.36 1016.67 1016.85 1017.26 1017.44 1017.61 1017.68 1017.84 1017.97 1018.11 1018.08 1018.01 1018.08 1018.13 1018.13 1018.23 1018.36 1018.57 1018.65 1018.77 1018.86 1019.01 1019.01 1019.09 1019.13
1008.11 1007.89 1007.05 1006.71 1006.25 1006.29 1006.90 1007.29 1007.98 1008.39 1009.06 1009.48 1009.82 1010.87 1011.74 1012.09 1011.99 1012.44 1012.81 1013.34 1014.20 1015.28 1015.69 1015.97 1016.34 1016.68 1016.85 1017.18 1017.47 1017.74 1017.79 1017.88 1018.04 1018.08 1018.16 1018.14 1018.16 1018.28 1018.38 1018.49 1018.70 1018.68 1018.82 1018.93 1019.09 1019.20 1019.30 1019.36 1019.46
1008.38 1008.07 1007.03 1006.09 1005.41 1005.71 1006.16 1006.71 1007.47 1008.13 1008.71 1009.15 1010.16 1011.00 1012.08 1012.31 1012.47 1012.64 1013.07 1013.59 1013.94 1014.79 1015.51 1015.84 1016.19 1016.65 1016.90 1017.12 1017.34 1017.75 1017.89 1017.92 1018.03 1018.12 1018.19 1018.20 1018.28 1018.37 1018.49 1018.70 1018.85 1018.98 1019.04 1019.13 1019.29 1019.38 1019.48 1019.61 1019.72
1007.46 1007.25 1006.17 1005.42 1004.84 1005.13 1005.56 1006.16 1006.82 1007.64 1008.23 1008.73 1009.68 1010.83 1012.10 1012.50 1012.48 1012.45 1012.99 1013.61 1014.18 1014.72 1015.34 1015.86 1016.20 1016.59 1016.86 1017.08 1017.44 1017.64 1017.74 1017.91 1018.04 1018.01 1018.12 1018.19 1018.30 1018.51 1018.65 1018.70 1018.88 1019.12 1019.22 1019.35 1019.47 1019.48 1019.45 1019.60 1019.82
1006.61 1006.78 1005.35 1004.49 1003.78 1004.44 1004.89 1005.29 1006.07 1006.37 1007.33 1008.35 1009.32 1010.42 1011.46 1011.68 1012.03 1012.35 1013.06 1013.72 1014.36 1014.93 1015.42 1015.89 1016.27 1016.65 1016.98 1017.09 1017.28 1017.46 1017.55 1017.81 1017.89 1017.90 1018.06 1018.28 1018.37 1018.47 1018.67 1018.85 1018.92 1019.08 1019.26 1019.51 1019.67 1019.71 1019.60 1019.55 1019.62
1004.61 1005.00 1003.72 1002.99 1003.13 1003.61 1004.21 1004.51 1005.14 1005.71 1006.61 1007.52 1008.63 1009.19 1010.46 1011.20 1011.77 1012.36 1012.91 1013.71 1014.36 1014.90 1015.31 1015.71 1016.16 1016.48 1016.76 1016.93 1017.03 1017.20 1017.40 1017.60 1017.67 1017.78 1017.86 1018.05 1018.46 1018.58 1018.64 1018.84 1018.98 1019.12 1019.18 1019.35 1019.62 1019.79 1019.79 1019.65 1019.57
1003.23 1002.66 1002.22 1002.14 1002.64 1003.08 1003.67 1004.21 1004.83 1005.55 1006.31 1007.64 1008.82 1009.89 1010.46 1011.00 1011.64 1012.32 1012.92 1013.52 1014.17 1014.57 1014.95 1015.28 1015.56 1015.78 1016.25 1016.35 1016.69 1017.04 1017.23 1017.32 1017.52 1017.82 1017.95 1018.09 1018.35 1018.59 1018.71 1018.69 1018.86 1019.11 1019.24 1019.37 1019.58 1019.78 1019.91 1019.86 1019.83
1001.45 1001.63 1001.80 1002.24 1002.50 1002.90 1003.45 1004.06 1004.56 1005.00 1006.12 1007.08 1008.17 1009.27 1010.05 1010.78 1011.64 1012.27 1012.93 1013.39 1013.74 1014.14 1014.50 1014.80 1014.99 1015.12 1015.60 1015.82 1016.51 1016.89 1016.96 1017.23 1017.42 1017.50 1017.77 1017.94 1018.19 1018.37 1018.48 1018.71 1018.80 1019.11 1019.20 1019.50 1019.61 1019.76 1019.93 1019.96 1019.98
1000.82 1001.17 1001.74 1002.21 1002.43 1002.82 1003.28 1003.74 1004.00 1004.40 1005.37 1006.44 1007.68 1008.75 1009.67 1010.48 1011.27 1011.98 1012.41 1012.95 1013.28 1013.64 1013.92 1014.17 1014.37 1014.73 1015.11 1015.58 1016.00 1016.23 1016.61 1016.82 1017.02 1017.14 1017.47 1017.80 1017.99 1018.17 1018.35 1018.64 1018.88 1019.06 1019.24 1019.55 1019.59 1019.83 1019.93 1019.91 1019.79
1000.96 1001.21 1001.67 1002.09 1002.36 1002.77 1003.16 1003.38 1003.56 1004.13 1005.30 1006.35 1007.38 1008.63 1009.51 1010.26 1010.88 1011.41 1011.86 1012.49 1013.10 1013.47 1013.66 1013.85 1014.31 1014.59 1014.98 1015.48 1015.83 1015.86 1016.15 1016.21 1016.40 1017.02 1017.16 1017.43 1017.71 1017.97 1018.24 1018.43 1018.61 1018.95 1019.15 1019.39 1019.58 1019.69 1019.72 1019.75 1019.72
1000.92 1001.29 1001.80 1002.11 1002.24 1002.44 1002.77 1003.09 1003.54 1004.21 1004.97 1006.11 1007.14 1008.21 1009.05 1009.66 1010.09 1010.80 1011.30 1012.02 1012.68 1013.08 1013.45 1013.62 1014.25 1014.34 1014.73 1015.53 1015.47 1015.69 1015.95 1016.02 1016.02 1016.38 1017.06 1017.15 1017.55 1017.84 1018.22 1018.43 1018.52 1018.67 1018.75 1019.00 1019.19 1019.41 1019.65 1019.70 1019.58
1001.35 1001.79 1002.02 1002.21 1002.48 1002.59 1002.79 1003.48 1003.77 1003.94 1004.91 1005.82 1006.81 1007.65 1008.42 1008.81 1009.28 1010.07 1010.60 1011.40 1012.09 1012.83 1013.17 1013.32 1013.90 1014.09 1014.79 1015.28 1015.48 1015.72 1015.81 1015.86 1016.04 1016.38 1016.57 1016.82 1017.30 1017.65 1018.10 1018.44 1018.51 1018.54 1018.61 1018.66 1018.82 1019.04 1019.22 1019.38 1019.40
1002.68 1002.68 1003.13 1002.62 1002.78 1002.86 1003.27 1004.03 1004.03 1004.26 1004.93 1005.88 1006.47 1007.10 1007.78 1008.16 1008.55 1009.34 1010.02 1010.82 1011.62 1012.30 1012.91 1013.26 1013.71 1014.27 1014.79 1015.16 1015.30 1015.57 1015.73 1015.96 1016.22 1016.74 1016.53 1016.68 1017.03 1017.37 1017.97 1018.22 1018.35 1018.22 1018.50 1018.80 1018.90 1019.17 1019.32 1019.32 1019.50
1004.60 1004.56 1004.32 1004.08 1003.57 1003.85 1004.07 1004.82 1004.96 1004.74 1005.40 1006.08 1006.43 1006.95 1007.38 1007.78 1008.11 1008.83 1009.60 1010.29 1011.09 1011.60 1012.48 1012.91 1013.34 1014.02 1014.53 1014.94 1015.15 1015.47 1015.46 1015.59 1016.29 1016.62 1016.58 1016.73 1016.93 1017.16 1017.65 1017.94 1018.02 1018.24 1018.41 1018.65 1018.82 1019.08 1019.29 1019.63 1019.73
1005.72 1005.97 1005.65 1005.85 1005.59 1006.15 1005.40 1005.43 1005.50 1005.31 1005.69 1006.29 1006.70 1006.97 1007.26 1007.51 1007.83 1008.19 1009.16 1009.85 1010.49 1011.16 1011.88 1012.49 1013.04 1013.68 1014.26 1014.72 1015.02 1015.34 1015.52 1015.38 1015.69 1016.09 1016.13 1016.59 1016.94 1017.17 1017.70 1017.78 1017.93 1018.17 1018.40 1018.67 1018.90 1019.23 1019.17 1019.48 1019.66
1005.16 1006.26 1006.78 1006.53 1007.40 1008.83 1008.06 1007.28 1006.91 1006.45 1006.11 1006.35 1006.71 1007.02 1007.14 1007.37 1007.39 1007.85 1008.35 1009.37 1010.21 1010.92 1011.63 1012.26 1012.88 1013.43 1014.14 1014.68 1015.16 1015.43 1015.63 1015.28 1015.57 1015.79 1015.92 1016.41 1016.76 1017.04 1017.38 1017.62 1017.94 1018.21 1018.43 1018.48 1018.81 1019.15 1019.59 1019.72 1019.84
1004.22 1006.46 1007.69 1009.28 1008.06 1008.78 1008.48 1010.62 1008.51 1008.61 1008.21 1008.09 1006.24 1006.62 1006.68 1007.04 1007.21 1007.76 1008.24 1008.93 1009.93 1010.65 1011.25 1012.06 1012.55 1013.16 1013.76 1014.22 1014.58 1014.72 1015.03 1015.58 1016.23 1016.47 1016.59 1016.25 1016.39 1016.57 1017.07 1017.34 1018.12 1017.92 1018.40 1018.48 1018.92 1019.16 1019.70 1019.70 1019.71
1002.15 1004.34 1006.02 1007.38 1008.02 1007.82 1008.89 1012.39 1010.37 1009.13 1006.87 1007.16 1006.07 1005.62 1005.65 1005.96 1006.75 1007.47 1008.03 1008.64 1009.61 1010.41 1011.07 1011.76 1012.34 1012.74 1013.44 1013.91 1014.17 1014.55 1015.27 1015.90 1016.17 1016.22 1016.24 1016.21 1016.18 1016.27 1016.65 1016.95 1017.42 1017.87 1018.09 1018.48 1018.68 1018.78 1019.15 1019.57 1019.51
999.84 1001.91 1003.70 1005.86 1007.18 1006.30 1006.15 1010.27 1010.59 1008.09 1007.47 1006.34 1004.87 1004.55 1004.71 1004.97 1005.55 1006.58 1007.42 1008.10 1009.09 1010.03 1010.70 1011.23 1011.84 1012.46 1013.07 1013.53 1013.94 1014.65 1015.16 1015.89 1015.77 1016.54 1017.06 1017.08 1016.26 1016.14 1016.37 1016.48 1016.78 1017.58 1018.55 1018.82 1018.67 1018.60 1018.68 1018.84 1019.22
997.93 999.16 1000.82 1003.72 1003.52 1004.33 1004.71 1006.32 1008.01 1008.58 1007.14 1004.62 1003.62 1003.21 1003.24 1003.53 1004.34 1005.48 1006.27 1007.07 1008.11 1009.25 1010.07 1010.59 1011.26 1012.17 1012.80 1013.32 1013.73 1014.37 1014.90 1015.23 1015.90 1016.35 1016.72 1016.53 1016.66 1016.52 1015.73 1016.13 1016.60 1017.14 1017.53 1018.02 1018.12 1018.27 1018.33 1018.42 1018.55
997.28 998.30 999.43 1000.35 1001.65 1003.08 1003.81 1005.37 1006.68 1005.86 1004.15 1002.75 1002.41 1002.23 1002.45 1002.67 1003.30 1004.24 1005.24 1006.07 1007.16 1008.40 1009.31 1010.11 1010.84 1011.65 1012.36 1013.01 1013.53 1013.99 1014.41 1015.06 1016.19 1016.71 1016.45 1017.08 1017.52 1017.72 1017.18 1016.51 1016.57 1016.85 1017.11 1017.58 1017.51 1017.70 1018.04 1018.08 1018.03
997.24 998.67 999.98 1001.07 1001.97 1003.60 1003.13 1004.92 1005.89 1003.91 1001.95 1000.75 1000.82 1001.42 1001.34 1001.85 1002.47 1003.25 1004.31 1005.32 1006.33 1007.52 1008.58 1009.53 1010.31 1011.12 1011.72 1012.46 1013.13 1013.64 1014.25 1014.76 1015.47 1016.25 1016.82 1017.38 1017.86 1017.09 1017.76 1018.04 1017.97 1017.41 1016.91 1017.00 1017.05 1017.45 1017.70 1017.76 1017.81
997.49 998.58 1000.02 1000.91 1001.90 1003.32 1003.46 1004.51 1003.06 1001.72 1000.52 1000.80 1000.81 1001.33 1001.40 1001.04 1001.54 1002.32 1003.17 1004.20 1005.35 1006.60 1007.66 1008.70 1009.74 1010.53 1011.25 1011.81 1012.64 1013.25 1013.90 1014.62 1014.96 1015.88 1016.52 1017.41 1017.15 1016.77 1016.14 1016.84 1017.29 1017.84 1016.88 1016.67 1016.62 1017.09 1017.44 1017.46 1017.43
997.55 998.19 999.14 1000.15 1000.96 1002.37 1003.09 1003.00 1002.01 1000.84 1000.83 1000.52 1000.54 1001.24 1001.07 1000.36 1000.76 1001.43 1002.38 1003.30 1004.62 1005.80 1006.76 1007.79 1008.98 1010.01 1010.74 1011.34 1012.17 1012.93 1013.52 1014.23 1014.98 1015.76 1016.26 1016.36 1016.10 1016.24 1015.85 1015.75 1016.58 1017.30 1017.58 1016.30 1016.60 1016.85 1017.19 1017.28 1017.15
996.96 998.01 999.19 999.99 1001.47 1002.33 1002.23 1001.39 1000.74 1000.90 1000.03 1000.35 1001.02 1001.22 1000.16 1000.05 1000.13 1000.97 1001.76 1002.57 1003.82 1004.97 1006.03 1007.21 1008.22 1009.13 1009.95 1010.93 1011.66 1012.47 1013.24 1013.88 1014.86 1015.48 1015.78 1015.75 1015.24 1015.72 1015.15 1015.58 1016.42 1016.49 1016.81 1016.26 1016.36 1016.73 1016.83 1016.97 1017.07
997.04 997.86 998.87 1000.07 1001.07 1001.75 1001.59 1001.09 998.80 999.29 999.01 999.19 999.09 1001.06 998.84 998.54 999.25 1000.24 1001.18 1001.98 1003.13 1004.22 1005.63 1006.83 1007.95 1008.96 1009.84 1010.56 1011.34 1012.15 1013.06 1013.64 1014.57 1014.81 1015.07 1015.12 1015.33 1015.83 1016.09 1016.30 1016.67 1016.70 1016.50 1016.34 1016.39 1016.46 1016.60 1016.78 1016.92
996.09 997.20 998.23 999.91 1000.83 1000.80 1000.48 1000.25 998.11 997.63 997.53 997.11 997.29 997.07 997.16 997.61 998.43 999.36 1000.62 1001.68 1002.81 1004.04 1005.45 1006.47 1007.48 1008.41 1009.09 1009.81 1010.78 1011.60 1012.47 1013.22 1013.96 1014.70 1014.82 1014.96 1015.68 1015.69 1015.84 1016.20 1016.47 1016.67 1016.47 1015.86 1016.08 1016.41 1016.46 1016.53 1016.75
Wind_Speed
9 6 1 2 2 3 3 7 10 10 5 4 10 10 11 9 6 9 11 19 18 15 11 12 13 14 13 12 10 11 11 11 13 13 13 12 12 11 10 11 13 14 14 13 14 14 14 13 13
9 8 1 2 3 6 3 7 11 11 11 8 14 15 10 8 4 16 14 21 19 16 11 10 13 14 13 11 11 10 13 12 11 11 13 14 11 11 10 10 11 14 14 13 12 14 13 11 11
11 5 2 3 2 5 7 12 16 12 10 4 7 12 9 14 13 11 21 22 20 16 12 12 15 14 14 11 11 11 12 11 10 11 12 12 12 12 12 13 14 14 14 13 13 13 11 9 9
4 3 4 1 13 9 16 15 15 9 6 7 7 12 7 6 11 16 20 20 18 16 14 15 16 16 15 11 11 10 11 10 9 9 10 11 13 13 14 15 16 15 15 14 13 12 9 9 7
3 5 3 7 16 15 13 16 14 9 6 14 14 12 9 9 7 17 22 21 20 14 13 14 16 15 15 13 10 8 11 11 8 8 8 9 11 12 14 15 15 16 15 14 13 11 9 7 6
3 4 2 8 15 13 12 17 14 10 15 17 16 14 7 9 6 6 18 19 19 17 13 13 17 15 13 13 12 9 8 9 8 7 6 7 8 10 11 14 13 15 14 14 11 10 8 5 4
3 8 6 13 17 11 11 18 14 15 16 14 14 11 13 16 12 9 13 17 17 16 13 11 10 12 14 13 11 11 8 6 6 6 5 7 6 7 10 12 12 13 13 13 11 8 5 3 2
3 4 5 11 13 12 13 9 13 20 15 19 16 8 19 17 18 13 16 17 17 14 12 11 8 7 6 6 12 11 9 8 7 5 5 7 4 4 9 8 11 13 13 12 10 7 3 2 3
5 5 4 8 11 7 15 9 17 14 20 12 13 13 18 20 19 14 14 16 15 13 13 12 11 9 8 8 8 11 11 10 9 7 8 4 3 1 6 9 11 13 13 13 11 9 6 6 6
7 3 11 9 10 4 17 15 15 14 16 18 19 16 17 15 12 12 13 13 14 15 14 14 14 13 11 9 8 6 6 4 5 5 5 3 2 4 5 9 14 13 13 13 12 10 9 6 4
4 8 10 12 11 9 15 16 13 10 14 24 25 23 21 15 13 9 8 11 10 12 12 15 15 13 12 8 5 4 4 4 4 7 6 5 4 4 3 3 4 4 10 4 6 6 3 5 4
12 15 13 10 8 7 10 11 12 12 18 24 24 23 20 20 17 15 11 10 11 8 7 9 8 7 8 6 6 6 5 5 4 5 7 5 3 4 4 4 4 4 3 5 5 3 5 6 6
6 13 12 9 10 10 13 11 8 12 25 24 24 21 18 17 16 16 12 12 11 9 7 5 6 8 8 6 4 4 5 4 7 7 6 4 4 4 4 4 4 4 4 5 5 5 5 5 5
12 12 14 11 8 11 11 6 8 12 24 24 23 20 17 18 20 17 13 15 13 9 8 7 7 8 7 5 4 3 4 4 3 5 7 7 5 5 4 4 4 5 6 5 6 5 5 5 4
16 12 10 9 8 6 9 6 6 10 21 24 22 19 18 17 17 19 15 14 17 12 10 8 9 8 7 6 5 4 4 4 4 4 7 7 6 5 5 4 4 4 5 5 5 4 3 3 3
8 7 3 8 10 4 9 8 8 10 12 20 20 18 16 13 14 19 18 17 15 13 8 11 11 9 7 6 5 3 2 3 3 2 4 7 6 7 5 4 4 4 4 3 4 3 3 3 3
7 0 3 7 2 1 3 3 2 9 9 12 15 15 14 12 9 15 21 18 17 14 12 10 9 12 10 7 5 5 5 4 5 6 4 5 6 6 5 2 4 4 4 3 4 2 3 1 1
8 5 5 4 6 11 1 5 3 10 11 9 9 10 9 9 8 11 21 18 16 13 13 12 8 14 10 6 5 3 3 3 4 6 6 7 4 4 4 4 5 4 4 3 3 3 2 2 3
10 9 7 8 14 18 17 8 2 4 9 10 9 9 9 9 9 10 10 17 13 17 13 14 9 13 9 4 4 3 4 4 1 2 6 6 5 5 5 2 3 4 4 4 3 3 3 2 2
19 11 6 10 24 13 15 2 25 24 17 13 11 13 12 9 9 11 9 9 15 15 13 9 9 12 11 6 4 3 3 2 5 3 3 3 6 6 4 4 4 5 4 5 4 4 2 2 4
14 22 20 17 22 18 11 1 18 17 19 15 13 16 16 15 11 14 10 9 15 16 13 9 9 13 10 8 3 2 5 4 1 2 3 3 6 6 5 4 5 5 3 4 6 6 6 4 4
11 25 29 23 13 9 22 8 14 16 16 15 19 17 17 17 14 17 14 11 16 15 14 12 10 9 8 8 3 7 5 4 4 3 4 6 3 5 6 5 4 6 4 5 4 3 4 4 4
7 25 26 32 13 6 7 7 5 7 16 8 9 19 20 20 19 21 19 16 14 18 16 14 12 10 7 7 5 5 5 4 3 5 9 11 4 8 7 6 6 5 4 3 5 2 4 3 3
4 6 6 6 4 4 5 8 6 4 9 7 7 8 12 20 21 20 21 19 17 18 16 15 14 14 9 8 7 7 8 6 6 2 3 4 5 8 12 5 4 5 4 3 4 4 5 4 3
4 5 5 6 5 2 12 10 7 12 12 11 11 9 8 22 20 19 21 19 17 21 19 16 16 14 13 11 8 8 7 7 8 5 5 7 5 2 5 6 8 4 5 5 4 5 5 4 3
8 9 7 6 6 5 8 9 8 19 18 11 11 7 12 22 19 20 20 20 18 22 20 20 18 16 14 13 10 7 8 6 5 8 9 7 8 7 9 6 3 9 5 5 5 3 4 4 5
10 6 8 4 8 3 6 5 5 8 18 17 18 9 18 14 20 22 18 18 18 20 20 20 19 15 15 13 10 8 7 7 9 12 9 7 7 7 8 8 1 4 13 6 5 3 5 5 5
11 8 4 4 4 5 7 7 6 10 20 15 14 17 24 16 19 19 17 18 19 19 16 19 20 18 16 12 11 9 8 7 12 9 10 9 5 3 6 3 3 5 11 6 4 2 5 4 4
2 4 5 3 4 3 1 6 9 9 6 3 14 19 21 19 16 18 17 15 19 16 16 18 17 15 12 11 10 9 8 8 11 9 8 8 4 6 6 5 5 8 8 4 3 5 4 5 5
9 11 11 7 10 4 6 4 8 14 12 17 29 13 17 20 17 19 18 14 19 15 17 18 16 15 14 12 12 9 10 10 11 11 10 8 8 6 7 7 6 7 9 7 6 6 4 5 3
Wind_Direction
157 163 183 256 59 87 46 106 122 116 76 78 54 71 87 43 47 119 135 120 126 129 139 138 132 124 118 110 107 96 91 75 77 79 79 102 106 100 94 108 113 112 112 109 114 106 107 109 115
159 167 32 253 110 93 85 130 124 104 110 112 94 101 75 74 42 112 116 132 129 135 132 134 134 128 122 121 113 106 92 81 73 76 80 79 99 103 101 105 112 116 115 114 111 110 108 114 113
160 139 251 196 194 121 124 113 112 113 128 129 117 93 87 128 143 135 137 134 138 133 133 141 134 129 126 123 108 103 95 88 79 72 75 71 89 102 104 116 119 122 116 113 116 114 116 115 119
150 217 275 194 97 112 124 124 108 106 47 52 113 83 86 107 143 131 143 140 127 128 133 138 138 135 130 128 118 112 102 94 86 87 77 72 70 107 106 113 120 124 117 115 113 119 114 118 126
74 268 218 111 108 116 132 126 130 125 107 106 110 114 107 129 134 119 125 127 124 126 138 139 140 140 137 134 126 130 115 109 100 86 81 80 77 87 111 116 126 123 120 119 117 114 114 111 100
112 294 150 114 127 130 134 133 136 126 133 127 95 117 104 118 124 153 133 129 132 138 139 143 142 143 145 145 140 125 122 116 116 103 98 90 93 95 115 125 133 130 130 121 119 117 113 105 69
233 327 143 123 123 124 135 146 153 143 149 140 126 118 138 153 177 172 126 133 135 133 141 140 142 151 153 147 145 142 146 146 139 141 131 107 101 117 119 139 144 142 141 134 130 127 125 104 65
256 147 287 134 133 141 145 139 151 161 156 127 135 151 159 165 171 170 134 134 135 140 143 148 147 146 152 156 163 165 170 185 183 177 150 102 92 136 145 145 155 152 153 152 150 152 163 264 293
218 222 138 115 104 151 149 158 163 137 135 161 193 142 154 163 171 155 141 143 144 152 153 152 161 171 176 179 181 185 190 197 207 194 164 134 156 215 196 163 168 168 165 165 169 176 201 250 275
204 65 66 102 115 154 143 128 126 152 157 120 122 135 159 158 127 134 143 142 154 160 163 167 173 181 181 182 178 178 197 195 209 195 189 200 179 211 198 171 174 174 173 172 173 180 191 225 276
241 104 101 119 123 147 116 131 149 162 136 137 142 147 150 141 137 149 165 169 156 166 173 180 184 184 178 181 167 177 190 191 208 207 180 189 181 199 176 159 171 171 184 175 180 183 197 221 247
99 104 101 118 139 123 127 162 165 166 139 139 142 149 156 160 157 168 184 161 157 180 180 174 188 158 165 155 172 178 188 195 193 188 167 170 173 168 150 158 171 180 166 187 182 186 204 233 218
132 114 116 114 146 157 153 187 169 162 138 139 143 156 163 162 162 174 178 162 161 176 175 179 146 131 145 123 202 188 171 186 179 171 183 153 158 159 163 178 174 177 178 190 199 192 203 216 227
129 120 132 164 173 153 174 168 146 136 139 144 150 161 170 176 177 178 158 172 158 168 178 197 157 130 130 152 114 152 147 157 141 151 173 162 160 165 171 190 192 197 190 196 198 197 183 215 214
131 132 161 166 152 202 137 132 208 158 148 150 157 166 179 188 173 172 170 161 157 176 188 183 150 137 145 167 168 169 191 156 147 171 154 158 149 169 174 187 207 200 201 189 179 198 209 209 226
5 45 51 177 169 213 124 208 212 158 143 156 160 170 179 191 172 175 167 158 164 175 171 160 153 153 170 176 180 182 167 186 130 201 171 156 159 165 170 203 204 203 166 192 161 169 234 226 133
355 122 305 326 320 260 142 216 285 147 151 160 162 173 176 190 184 163 163 167 166 171 157 167 161 161 176 170 184 177 201 211 148 198 205 167 178 174 155 192 201 164 144 155 163 178 166 142 166
177 255 295 267 329 358 105 234 205 167 162 165 163 172 173 178 179 159 164 169 170 161 162 177 173 168 172 159 166 168 190 246 180 180 177 161 181 174 174 191 176 147 154 146 158 188 188 165 185
169 175 229 337 326 338 297 293 4 263 175 166 169 175 180 177 182 159 154 164 164 160 164 181 139 162 155 156 157 171 185 216 163 104 142 156 175 195 182 194 169 175 142 146 222 156 180 252 159
184 162 100 8 332 302 292 22 32 322 298 296 174 180 181 181 170 159 153 144 148 161 166 161 146 152 163 166 177 179 157 98 91 95 41 175 178 185 189 193 180 181 149 171 202 179 165 222 197
186 174 172 155 213 265 244 215 135 246 263 281 218 189 183 177 165 162 159 160 155 162 165 165 157 162 167 180 164 114 74 76 150 132 193 216 194 197 191 192 195 162 160 170 177 180 175 206 227
237 183 186 214 185 199 196 136 223 198 251 238 200 185 187 176 164 164 166 171 159 167 166 169 152 166 170 173 147 144 144 164 228 84 67 353 264 201 189 187 172 117 143 161 186 194 209 164 201
239 152 195 178 185 168 192 104 159 198 226 221 207 192 180 177 174 167 174 173 168 164 170 172 154 163 170 172 175 164 153 168 115 119 125 213 292 276 196 180 162 165 160 192 181 230 285 199 176
290 319 287 236 219 288 208 110 297 244 212 240 187 200 196 174 175 173 176 178 174 169 168 170 165 175 170 172 172 174 171 135 119 160 117 48 21 357 8 340 165 164 171 201 190 216 247 217 221
230 316 319 340 348 139 83 67 270 263 246 233 216 212 233 179 175 175 176 181 174 170 172 173 175 175 177 175 166 174 182 135 140 137 101 103 93 129 353 339 4 290 187 190 214 223 220 204 210
226 197 165 234 254 147 116 155 233 224 238 230 258 282 279 174 174 180 179 176 175 170 172 174 178 180 180 174 168 169 170 147 155 125 121 148 152 160 162 264 318 346 254 206 191 181 225 231 225
262 280 238 231 276 38 146 236 319 203 244 258 249 228 251 178 177 179 177 169 174 171 174 172 176 178 178 174 159 160 164 149 122 133 154 175 164 164 165 192 170 294 296 217 188 195 233 239 220
167 225 317 319 247 267 212 174 189 200 239 227 246 245 246 197 174 177 177 166 171 171 168 168 173 174 176 165 164 161 158 164 127 149 154 184 201 142 137 146 188 251 278 218 172 203 252 212 241
167 224 264 190 166 180 220 273 205 187 258 204 284 192 216 173 167 171 174 161 169 165 154 163 168 166 167 165 165 150 159 165 138 153 167 190 153 153 189 184 197 227 249 213 203 228 248 221 242
186 195 195 137 284 220 174 231 190 174 210 164 216 215 173 169 169 165 168 158 165 156 154 160 165 167 171 171 162 164 159 168 151 163 187 192 164 198 205 207 221 224 245 195 198 224 222 217 250